| time (UTC) | temp F | wind direction | speed MPH | gust MPH | rain 1hr in | rain 24hr in | rain mn in | humidity % | barometer mb |
| 20260831161015 | 85 | 225 | 3.0 | 6.0 | 0.00 | 0.00 | 0.00 | 80 | 1017.8 |
| 20260831160036 | 85 | 248 | 3.0 | 5.0 | 0.00 | 0.00 | 0.00 | 80 | 1017.8 |
| 20260831155025 | 87 | 225 | 2.0 | 6.0 | 0.00 | 0.00 | 0.00 | 76 | 1017.8 |
| 20260831154015 | 87 | 135 | 1.0 | 2.0 | 0.00 | 0.00 | 0.00 | 73 | 1017.7 |
| 20260831153017 | 87 | 113 | 1.0 | 4.0 | 0.00 | 0.00 | 0.00 | 72 | 1017.6 |
| 20260831152015 | 88 | 90 | 2.0 | 6.0 | 0.00 | 0.00 | 0.00 | 72 | 1017.6 |
| 20260831151016 | 88 | 45 | 1.0 | 3.0 | 0.00 | 0.00 | 0.00 | 73 | 1017.6 |
| 20260831150017 | 87 | 68 | 1.0 | 7.0 | 0.00 | 0.00 | 0.00 | 76 | 1017.6 |
| 20260831145016 | 86 | 0.0 | 2.0 | 0.00 | 0.00 | 0.00 | 76 | 1017.6 | |
| 20260831144016 | 85 | 68 | 2.0 | 6.0 | 0.00 | 0.00 | 0.00 | 77 | 1017.6 |
| 20260831143016 | 87 | 90 | 1.0 | 4.0 | 0.00 | 0.00 | 0.00 | 75 | 1017.7 |
| 20260831142016 | 86 | 0.0 | 2.0 | 0.00 | 0.00 | 0.00 | 78 | 1017.6 | |
| 20260831141017 | 86 | 90 | 1.0 | 4.0 | 0.00 | 0.00 | 0.00 | 76 | 1017.7 |
| 20260831140015 | 85 | 0.0 | 2.0 | 0.00 | 0.00 | 0.00 | 78 | 1017.7 | |
| 20260831135017 | 84 | 0.0 | 2.0 | 0.00 | 0.00 | 0.00 | 80 | 1017.7 | |
| 20260831134017 | 82 | 0.0 | 2.0 | 0.00 | 0.00 | 0.00 | 84 | 1017.8 | |
| 20260831133015 | 81 | 293 | 1.0 | 5.0 | 0.00 | 0.00 | 0.00 | 84 | 1017.9 |
| 20260831132518 | 81 | 315 | 1.0 | 2.0 | 0.00 | 0.00 | 0.00 | 85 | 1017.9 |
| 20260831131515 | 80 | 248 | 1.0 | 4.0 | 0.00 | 0.00 | 0.00 | 87 | 1017.9 |
| 20260831130536 | 79 | 293 | 2.0 | 4.0 | 0.00 | 0.00 | 0.00 | 88 | 1017.9 |
| 20260831125515 | 78 | 315 | 1.0 | 2.0 | 0.00 | 0.00 | 0.00 | 89 | 1017.6 |
| 20260831124516 | 77 | 315 | 1.0 | 3.0 | 0.00 | 0.00 | 0.00 | 90 | 1017.7 |
| 20260831123516 | 77 | 315 | 2.0 | 3.0 | 0.00 | 0.00 | 0.00 | 92 | 1017.8 |
| 20260831122518 | 76 | 248 | 1.0 | 3.0 | 0.00 | 0.00 | 0.00 | 93 | 1017.6 |
| 20260831121517 | 76 | 0.0 | 1.0 | 0.00 | 0.00 | 0.00 | 94 | 1017.5 | |
| 20260831120516 | 76 | 0.0 | 1.0 | 0.00 | 0.00 | 0.00 | 95 | 1017.5 | |
| 20260831115515 | 74 | 0.0 | 0.0 | 0.00 | 0.00 | 0.00 | 96 | 1017.6 | |
| 20260831115019 | 74 | 0.0 | 0.0 | 0.00 | 0.00 | 0.00 | 96 | 1017.6 | |
| 20260831114016 | 73 | 0.0 | 0.0 | 0.00 | 0.00 | 0.00 | 97 | 1017.5 | |
| 20260831113016 | 72 | 0.0 | 0.0 | 0.00 | 0.00 | 0.00 | 97 | 1017.5 | |
| 20260831112036 | 72 | 0.0 | 0.0 | 0.00 | 0.00 | 0.00 | 96 | 1017.3 | |
| 20260831111016 | 71 | 0.0 | 0.0 | 0.00 | 0.00 | 0.00 | 96 | 1017.2 | |
| 20260831110039 | 71 | 0.0 | 0.0 | 0.00 | 0.00 | 0.00 | 96 | 1017.2 | |
| 20260831105017 | 71 | 0.0 | 0.0 | 0.00 | 0.00 | 0.00 | 95 | 1016.8 | |
| 20260831104015 | 72 | 0.0 | 0.0 | 0.00 | 0.00 | 0.00 | 95 | 1016.6 | |
| 20260831103016 | 72 | 0.0 | 0.0 | 0.00 | 0.00 | 0.00 | 95 | 1016.7 | |
| 20260831102015 | 72 | 0.0 | 0.0 | 0.00 | 0.00 | 0.00 | 95 | 1016.8 | |
| 20260831101036 | 72 | 0.0 | 0.0 | 0.00 | 0.00 | 0.00 | 94 | 1016.8 | |
| 20260831100016 | 72 | 0.0 | 1.0 | 0.00 | 0.00 | 0.00 | 94 | 1016.6 | |
| 20260831095016 | 72 | 0.0 | 2.0 | 0.00 | 0.00 | 0.00 | 95 | 1016.5 | |
| 20260831094015 | 73 | 0.0 | 1.0 | 0.00 | 0.00 | 0.00 | 94 | 1016.5 | |
| 20260831093016 | 73 | 0.0 | 2.0 | 0.00 | 0.00 | 0.00 | 95 | 1016.5 | |
| 20260831092016 | 73 | 0.0 | 0.0 | 0.00 | 0.00 | 0.00 | 95 | 1016.5 | |
| 20260831091016 | 72 | 0.0 | 0.0 | 0.00 | 0.00 | 0.00 | 95 | 1016.4 | |
| 20260831090017 | 73 | 0.0 | 0.0 | 0.00 | 0.00 | 0.00 | 94 | 1016.5 | |
| 20260831085015 | 73 | 0.0 | 0.0 | 0.00 | 0.00 | 0.00 | 95 | 1016.5 | |
| 20260831084035 | 73 | 0.0 | 0.0 | 0.00 | 0.00 | 0.00 | 94 | 1016.6 | |
| 20260831083015 | 73 | 0.0 | 0.0 | 0.00 | 0.00 | 0.00 | 94 | 1016.5 | |
| 20260831082015 | 74 | 0.0 | 0.0 | 0.00 | 0.00 | 0.00 | 94 | 1016.5 | |
| 20260831081016 | 74 | 0.0 | 0.0 | 0.00 | 0.00 | 0.00 | 94 | 1016.6 | |
| 20260831080016 | 74 | 0.0 | 0.0 | 0.00 | 0.00 | 0.00 | 94 | 1016.6 | |
| 20260831075017 | 74 | 0.0 | 0.0 | 0.00 | 0.00 | 0.00 | 94 | 1016.7 | |
| 20260831074015 | 74 | 0.0 | 0.0 | 0.00 | 0.00 | 0.00 | 94 | 1016.5 | |
| 20260831073027 | 74 | 0.0 | 0.0 | 0.00 | 0.00 | 0.00 | 94 | 1016.6 | |
| 20260831072056 | 74 | 0.0 | 0.0 | 0.00 | 0.00 | 0.00 | 93 | 1016.7 | |
| 20260831071015 | 74 | 0.0 | 0.0 | 0.00 | 0.00 | 0.00 | 93 | 1016.8 | |
| 20260831070015 | 75 | 0.0 | 1.0 | 0.00 | 0.00 | 0.00 | 93 | 1016.8 | |
| 20260831065016 | 75 | 0.0 | 0.0 | 0.00 | 0.00 | 0.00 | 93 | 1016.9 | |
| 20260831064015 | 75 | 0.0 | 0.0 | 0.00 | 0.00 | 0.00 | 94 | 1016.9 | |
| 20260831063015 | 75 | 0.0 | 3.0 | 0.00 | 0.00 | 0.00 | 94 | 1016.8 | |
| 20260831062016 | 75 | 248 | 1.0 | 3.0 | 0.00 | 0.00 | 0.00 | 95 | 1016.8 |
| 20260831061015 | 75 | 0.0 | 1.0 | 0.00 | 0.00 | 0.00 | 95 | 1016.7 | |
| 20260831060017 | 74 | 0.0 | 2.0 | 0.00 | 0.00 | 0.00 | 95 | 1016.9 | |
| 20260831055015 | 74 | 0.0 | 0.0 | 0.00 | 0.00 | 0.00 | 95 | 1017.0 | |
| 20260831054017 | 74 | 0.0 | 0.0 | 0.00 | 0.00 | 0.00 | 95 | 1017.0 | |
| 20260831053047 | 74 | 0.0 | 0.0 | 0.00 | 0.00 | 0.00 | 94 | 1017.1 | |
| 20260831052015 | 74 | 0.0 | 0.0 | 0.00 | 0.00 | 0.00 | 94 | 1017.1 | |
| 20260831051016 | 74 | 0.0 | 0.0 | 0.00 | 0.00 | 0.00 | 95 | 1017.2 | |
| 20260831050015 | 73 | 0.0 | 0.0 | 0.00 | 0.00 | 0.00 | 94 | 1017.2 | |
| 20260831045015 | 73 | 0.0 | 0.0 | 0.00 | 0.00 | 0.00 | 94 | 1017.3 | |
| 20260831044015 | 73 | 0.0 | 0.0 | 0.00 | 0.00 | 0.00 | 94 | 1017.1 | |
| 20260831043015 | 73 | 0.0 | 0.0 | 0.00 | 0.00 | 0.00 | 93 | 1017.1 | |
| 20260831042015 | 74 | 0.0 | 0.0 | 0.00 | 0.00 | 0.00 | 93 | 1017.2 | |
| 20260831041015 | 74 | 0.0 | 0.0 | 0.00 | 0.00 | 0.00 | 92 | 1017.3 | |
| 20260831040017 | 74 | 0.0 | 0.0 | 0.00 | 0.00 | 0.00 | 93 | 1017.4 | |
| 20260831035016 | 74 | 0.0 | 0.0 | 0.00 | 0.00 | 0.00 | 91 | 1017.6 | |
| 20260831034016 | 75 | 0.0 | 0.0 | 0.00 | 0.00 | 0.00 | 91 | 1017.6 | |
| 20260831033016 | 75 | 0.0 | 0.0 | 0.00 | 0.00 | 0.00 | 91 | 1017.9 | |
| 20260831032016 | 76 | 0.0 | 0.0 | 0.00 | 0.00 | 0.00 | 90 | 1018.0 | |
| 20260831031017 | 77 | 0.0 | 0.0 | 0.00 | 0.00 | 0.00 | 90 | 1018.0 | |
| 20260831030016 | 77 | 0.0 | 1.0 | 0.00 | 0.00 | 0.00 | 89 | 1018.0 | |
| 20260831025016 | 78 | 0.0 | 0.0 | 0.00 | 0.00 | 0.00 | 89 | 1018.0 | |
| 20260831024016 | 78 | 0.0 | 1.0 | 0.00 | 0.00 | 0.00 | 88 | 1018.1 | |
| 20260831023019 | 79 | 0.0 | 2.0 | 0.00 | 0.00 | 0.00 | 87 | 1018.2 | |
| 20260831022017 | 79 | 0.0 | 3.0 | 0.00 | 0.00 | 0.00 | 87 | 1018.1 | |
| 20260831021023 | 79 | 0.0 | 1.0 | 0.00 | 0.00 | 0.00 | 87 | 1018.1 | |
| 20260831020025 | 79 | 0.0 | 1.0 | 0.00 | 0.00 | 0.00 | 87 | 1018.0 | |
| 20260831015016 | 79 | 0.0 | 3.0 | 0.00 | 0.00 | 0.00 | 87 | 1018.1 | |
| 20260831014016 | 79 | 225 | 1.0 | 3.0 | 0.00 | 0.00 | 0.00 | 88 | 1018.1 |
| 20260831013017 | 79 | 203 | 1.0 | 4.0 | 0.00 | 0.00 | 0.00 | 89 | 1017.9 |
| 20260831012017 | 78 | 158 | 1.0 | 3.0 | 0.00 | 0.00 | 0.00 | 90 | 1017.9 |
| 20260831011018 | 77 | 0.0 | 1.0 | 0.00 | 0.00 | 0.00 | 90 | 1017.8 | |
| 20260831010016 | 78 | 0.0 | 0.0 | 0.00 | 0.00 | 0.00 | 90 | 1017.8 | |
| 20260831005016 | 78 | 0.0 | 2.0 | 0.00 | 0.00 | 0.00 | 90 | 1017.7 | |
| 20260831004017 | 78 | 0.0 | 0.0 | 0.00 | 0.00 | 0.00 | 89 | 1017.7 | |
| 20260831003017 | 78 | 0.0 | 0.0 | 0.00 | 0.00 | 0.00 | 89 | 1017.7 | |
| 20260831002016 | 79 | 0.0 | 0.0 | 0.00 | 0.00 | 0.00 | 88 | 1017.7 | |
| 20260831001016 | 79 | 0.0 | 0.0 | 0.00 | 0.00 | 0.00 | 87 | 1017.7 | |
| 20260831000123 | 80 | 0.0 | 0.0 | 0.00 | 0.00 | 0.00 | 87 | 1017.6 | |
| 20260830235016 | 80 | 0.0 | 0.0 | 0.00 | 0.00 | 0.00 | 87 | 1017.5 | |
| 20260830234017 | 80 | 0.0 | 0.0 | 0.00 | 0.00 | 0.00 | 86 | 1017.2 | |
| 20260830233016 | 81 | 0.0 | 0.0 | 0.00 | 0.00 | 0.00 | 85 | 1017.1 | |
| 20260830232017 | 82 | 0.0 | 1.0 | 0.00 | 0.00 | 0.00 | 84 | 1017.4 | |
| 20260830231016 | 82 | 0.0 | 0.0 | 0.00 | 0.00 | 0.00 | 83 | 1017.4 | |
| 20260830230037 | 83 | 0.0 | 0.0 | 0.00 | 0.00 | 0.00 | 81 | 1017.4 | |
| 20260830225017 | 83 | 0.0 | 1.0 | 0.00 | 0.00 | 0.00 | 80 | 1017.2 | |
| 20260830224016 | 84 | 90 | 1.0 | 3.0 | 0.00 | 0.00 | 0.00 | 78 | 1017.1 |
| 20260830223036 | 86 | 90 | 1.0 | 3.0 | 0.00 | 0.00 | 0.00 | 76 | 1017.1 |
| 20260830222017 | 86 | 90 | 1.0 | 3.0 | 0.00 | 0.00 | 0.00 | 75 | 1017.1 |
| 20260830221016 | 86 | 113 | 1.0 | 3.0 | 0.00 | 0.00 | 0.00 | 74 | 1017.1 |
| 20260830220016 | 87 | 90 | 2.0 | 5.0 | 0.00 | 0.00 | 0.00 | 73 | 1017.1 |
| 20260830215116 | 87 | 113 | 1.0 | 3.0 | 0.00 | 0.00 | 0.00 | 72 | 1017.2 |
| 20260830214016 | 88 | 90 | 2.0 | 7.0 | 0.00 | 0.00 | 0.00 | 70 | 1017.1 |
| 20260830213016 | 89 | 135 | 2.0 | 5.0 | 0.00 | 0.00 | 0.00 | 67 | 1017.1 |
| 20260830212016 | 89 | 158 | 2.0 | 5.0 | 0.00 | 0.00 | 0.00 | 64 | 1017.0 |
| 20260830211037 | 89 | 225 | 3.0 | 7.0 | 0.00 | 0.00 | 0.00 | 65 | 1016.8 |
| 20260830210036 | 89 | 225 | 2.0 | 5.0 | 0.00 | 0.00 | 0.00 | 66 | 1016.9 |
| 20260830205016 | 89 | 203 | 2.0 | 5.0 | 0.00 | 0.00 | 0.00 | 66 | 1016.8 |
| 20260830204017 | 88 | 180 | 2.0 | 6.0 | 0.00 | 0.00 | 0.00 | 66 | 1016.9 |
| 20260830203016 | 88 | 203 | 3.0 | 5.0 | 0.00 | 0.00 | 0.00 | 67 | 1017.1 |
| 20260830202016 | 88 | 225 | 2.0 | 5.0 | 0.00 | 0.00 | 0.00 | 67 | 1017.3 |
| 20260830201016 | 88 | 225 | 2.0 | 6.0 | 0.00 | 0.00 | 0.00 | 66 | 1017.3 |
| 20260830200017 | 87 | 135 | 3.0 | 6.0 | 0.00 | 0.00 | 0.00 | 67 | 1017.5 |
| 20260830195016 | 87 | 225 | 3.0 | 7.0 | 0.00 | 0.00 | 0.00 | 68 | 1017.7 |
| 20260830194017 | 87 | 203 | 3.0 | 5.0 | 0.00 | 0.00 | 0.00 | 69 | 1017.9 |
| 20260830193017 | 87 | 225 | 3.0 | 6.0 | 0.00 | 0.00 | 0.00 | 69 | 1018.0 |
| 20260830192037 | 88 | 203 | 3.0 | 5.0 | 0.00 | 0.00 | 0.00 | 68 | 1018.2 |
| 20260830191016 | 87 | 248 | 3.0 | 5.0 | 0.00 | 0.00 | 0.00 | 68 | 1018.4 |
| 20260830190017 | 87 | 270 | 3.0 | 7.0 | 0.00 | 0.00 | 0.00 | 72 | 1018.7 |
| 20260830185016 | 86 | 180 | 3.0 | 6.0 | 0.00 | 0.00 | 0.00 | 70 | 1018.8 |
| 20260830184036 | 86 | 203 | 3.0 | 7.0 | 0.00 | 0.00 | 0.00 | 70 | 1018.9 |
| 20260830183016 | 86 | 248 | 3.0 | 6.0 | 0.00 | 0.00 | 0.00 | 73 | 1018.9 |
| 20260830182037 | 86 | 270 | 3.0 | 7.0 | 0.00 | 0.00 | 0.00 | 74 | 1019.1 |
| 20260830181016 | 86 | 225 | 3.0 | 9.0 | 0.00 | 0.00 | 0.00 | 73 | 1019.3 |
| 20260830180016 | 85 | 270 | 4.0 | 8.0 | 0.00 | 0.00 | 0.00 | 73 | 1019.5 |
| 20260830175016 | 85 | 270 | 4.0 | 10.0 | 0.00 | 0.00 | 0.00 | 72 | 1019.6 |
| 20260830174036 | 85 | 248 | 3.0 | 7.0 | 0.00 | 0.00 | 0.00 | 72 | 1019.6 |
| 20260830173016 | 84 | 270 | 5.0 | 10.0 | 0.00 | 0.00 | 0.00 | 74 | 1019.8 |
| 20260830172016 | 84 | 248 | 3.0 | 5.0 | 0.00 | 0.00 | 0.00 | 74 | 1019.8 |
| 20260830171017 | 84 | 293 | 4.0 | 10.0 | 0.00 | 0.00 | 0.00 | 74 | 1020.1 |
| 20260830170017 | 84 | 270 | 4.0 | 10.0 | 0.00 | 0.00 | 0.00 | 75 | 1020.3 |
| 20260830165020 | 84 | 270 | 4.0 | 10.0 | 0.00 | 0.00 | 0.00 | 77 | 1020.2 |
| 20260830164017 | 83 | 203 | 4.0 | 9.0 | 0.00 | 0.00 | 0.00 | 77 | 1020.3 |
| 20260830163016 | 83 | 248 | 3.0 | 6.0 | 0.00 | 0.00 | 0.00 | 77 | 1020.4 |
| 20260830162016 | 83 | 270 | 4.0 | 10.0 | 0.00 | 0.00 | 0.00 | 78 | 1020.3 |